Waarnemingen

Advertentie
Mijn weer
Oviedo, Spanje (8015): temperatuur & dauwpunt: 11.02.2019 13:00:00 - 17.02.2019 13:00:00 (CET)Oviedo, Spanje (8015): windsnelheid: 11.02.2019 13:00:00 - 17.02.2019 13:00:00 (CET)Oviedo, Spanje (8015): windrichting: 11.02.2019 13:00:00 - 17.02.2019 13:00:00 (CET)Oviedo, Spanje (8015): luchtdruk: 11.02.2019 13:00:00 - 17.02.2019 13:00:00 (CET)Oviedo, Spanje (8015): zicht: 11.02.2019 13:00:00 - 17.02.2019 13:00:00 (CET)Oviedo, Spanje (8015): neerslag: 11.02.2019 13:00:00 - 17.02.2019 13:00:00 (CET)
Datum & Tijd tt [°C] td [°C] ff [km/u] ff [kn] dd ppp [hPa] vv [km] rr [mm]
17.02.2019 13:00:00 17,5 2,2 5 3 ZZW 1018,5 20 -
17.02.2019 12:00:00 16,1 3,8 4 2 NW 1018,9 19 0,0
17.02.2019 11:00:00 15,4 2,5 4 2 Z 1019,0 20 0,0
17.02.2019 10:00:00 13,5 2,4 2 1 ZO 1019,5 20 -
17.02.2019 09:00:00 12,3 1,9 4 2 ZO 1019,4 20 0,0
17.02.2019 08:00:00 11,2 1,7 4 2 ZZW 1019,1 20 0,0
17.02.2019 07:00:00 11,0 0,7 5 3 ZW 1019,2 20 -
17.02.2019 06:00:00 10,2 -0,3 2 1 Z 1019,4 20 0,0
17.02.2019 05:00:00 9,8 0,9 5 3 W 1019,4 20 0,0
17.02.2019 04:00:00 9,8 0,9 4 2 WNW 1019,4 19 -
17.02.2019 03:00:00 10,5 1,8 4 2 NO 1019,5 20 0,0
17.02.2019 02:00:00 10,9 2,2 8 4 O 1019,9 19 0,0
17.02.2019 01:00:00 12,1 2,8 5 3 WNW 1020,1 18 -
17.02.2019 00:00:00 13,7 0,0 5 3 ZZO 1019,9 20 0,0
16.02.2019 23:00:00 13,5 3,3 5 3 WZW 1020,2 17 0,0
16.02.2019 22:00:00 13,9 5,3 5 3 WZW 1019,9 15 -
16.02.2019 21:00:00 14,1 4,7 4 2 ZZW 1019,8 14 0,0
16.02.2019 20:00:00 15,2 4,3 4 2 ZO 1019,6 15 0,0
16.02.2019 19:00:00 16,2 5,8 8 4 OZO 1019,1 18 -
16.02.2019 18:00:00 18,1 7,2 5 3 O 1018,9 16 0,0
16.02.2019 17:00:00 19,9 7,3 8 4 O 1018,9 15 0,0
16.02.2019 16:00:00 20,6 5,4 5 3 ONO 1019,0 20 -
16.02.2019 15:00:00 19,6 6,0 4 2 NNO 1019,9 20 0,0
16.02.2019 14:00:00 18,3 5,8 4 2 NNO 1021,0 20 0,0
16.02.2019 13:00:00 16,0 5,9 4 2 NW 1022,4 20 -
16.02.2019 12:00:00 15,2 3,6 2 1 NNW 1023,1 14 0,0
16.02.2019 11:00:00 12,6 2,4 8 4 ZZO 1023,9 20 0,0
16.02.2019 10:00:00 8,7 1,1 9 5 ZZO 1025,2 20 -
16.02.2019 09:00:00 6,2 1,1 9 5 Z 1025,8 20 0,0
16.02.2019 08:00:00 6,6 1,3 9 5 Z 1025,4 20 0,0
16.02.2019 07:00:00 7,3 1,4 8 4 Z 1025,2 20 -
16.02.2019 06:00:00 7,2 1,7 11 6 Z 1025,5 20 0,0
16.02.2019 05:00:00 7,7 2,0 9 5 Z 1025,9 20 0,0
16.02.2019 04:00:00 8,2 2,2 8 4 Z 1026,6 20 -
16.02.2019 03:00:00 8,7 2,3 8 4 ZZO 1027,1 19 0,0
16.02.2019 02:00:00 8,7 2,5 11 6 Z 1027,6 19 0,0
16.02.2019 01:00:00 9,4 2,7 8 4 Z 1027,7 19 -
16.02.2019 00:00:00 10,0 2,6 8 4 Z 1027,6 19 0,0
15.02.2019 23:00:00 10,8 2,6 11 6 Z 1027,3 20 0,0
15.02.2019 22:00:00 12,0 3,0 8 4 Z 1026,9 20 -
15.02.2019 21:00:00 13,0 4,7 2 1 ZO 1026,5 17 0,0
15.02.2019 20:00:00 13,7 4,8 5 3 O 1026,4 19 0,0
15.02.2019 19:00:00 15,3 4,0 4 2 OZO 1026,0 20 -
15.02.2019 18:00:00 17,1 2,3 5 3 ONO 1025,2 20 0,0
15.02.2019 17:00:00 18,4 1,8 9 5 NO 1024,8 19 0,0
15.02.2019 16:00:00 19,9 0,8 15 8 NO 1024,4 20 -
15.02.2019 15:00:00 20,3 3,9 9 5 NNO 1024,3 20 0,0
15.02.2019 14:00:00 19,7 1,6 8 4 NO 1024,6 20 0,0
15.02.2019 13:00:00 17,4 5,3 4 2 N 1025,6 20 -
15.02.2019 12:00:00 18,3 3,3 4 2 Z 1025,7 20 0,0
15.02.2019 11:00:00 14,5 2,1 8 4 Z 1025,9 20 0,0
15.02.2019 10:00:00 10,9 1,4 8 4 Z 1026,1 20 -
15.02.2019 09:00:00 9,5 0,1 9 5 Z 1026,0 20 0,0
15.02.2019 08:00:00 10,3 0,3 8 4 Z 1025,3 20 0,0
15.02.2019 07:00:00 12,0 -0,9 4 2 W 1025,2 15 -
15.02.2019 06:00:00 12,0 -0,5 5 3 W 1024,8 20 0,0
15.02.2019 05:00:00 12,3 -0,6 4 2 W 1024,5 20 0,0
15.02.2019 04:00:00 12,7 -0,9 4 2 ZZW 1024,6 20 -
15.02.2019 03:00:00 12,6 0,0 8 4 W 1025,0 20 0,0
15.02.2019 02:00:00 12,8 -0,1 4 2 NW 1024,8 19 0,0
15.02.2019 01:00:00 13,2 0,6 8 4 W 1024,8 19 -
15.02.2019 00:00:00 13,7 -0,7 4 2 WZW 1024,3 19 0,0
14.02.2019 23:00:00 13,8 -0,3 5 3 ZZW 1024,1 20 0,0
14.02.2019 22:00:00 13,7 0,3 8 4 ZW 1024,0 15 -
14.02.2019 21:00:00 13,9 6,0 4 2 WNW 1023,9 19 0,0
14.02.2019 20:00:00 14,1 6,4 2 1 NNO 1023,9 19 0,0
14.02.2019 19:00:00 14,9 7,9 5 3 O 1023,3 15 -
14.02.2019 18:00:00 16,5 7,7 5 3 O 1022,9 19 0,0
14.02.2019 17:00:00 18,4 4,2 8 4 O 1022,9 20 0,0
14.02.2019 16:00:00 18,7 3,7 5 3 O 1023,1 20 -
14.02.2019 15:00:00 18,4 2,2 8 4 ONO 1023,8 20 0,0
14.02.2019 14:00:00 17,2 2,7 5 3 ONO 1024,6 20 0,0
14.02.2019 13:00:00 15,0 1,1 2 1 WNW 1025,8 20 -
14.02.2019 12:00:00 12,3 3,2 2 1 W 1026,6 20 0,0
14.02.2019 11:00:00 10,4 4,3 2 1 ZW 1027,1 20 0,0
14.02.2019 10:00:00 6,2 1,9 4 2 ZZW 1028,1 2,0 -
14.02.2019 09:00:00 4,5 1,7 9 5 Z 1028,1 19 0,0
14.02.2019 08:00:00 4,8 1,8 9 5 Z 1028,0 19 0,0
14.02.2019 07:00:00 5,0 2,2 11 6 Z 1027,9 15 -
14.02.2019 06:00:00 5,2 2,7 9 5 Z 1028,1 19 0,0
14.02.2019 05:00:00 5,6 2,9 11 6 Z 1027,9 19 0,0
14.02.2019 04:00:00 5,9 3,2 11 6 Z 1028,2 18 -
14.02.2019 03:00:00 6,3 3,6 8 4 Z 1028,6 17 0,0
14.02.2019 02:00:00 6,6 3,9 9 5 Z 1028,9 17 0,0
14.02.2019 01:00:00 7,2 4,3 8 4 Z 1029,1 16 -
14.02.2019 00:00:00 7,9 4,8 9 5 Z 1029,3 16 0,0
13.02.2019 23:00:00 8,7 5,3 8 4 Z 1029,4 17 0,0
13.02.2019 22:00:00 9,6 5,4 5 3 Z 1029,3 18 -
13.02.2019 21:00:00 10,6 4,9 2 1 O 1029,1 19 0,0
13.02.2019 20:00:00 11,1 5,8 8 4 ZO 1028,9 18 0,0
13.02.2019 19:00:00 12,5 4,5 8 4 ONO 1028,4 20 -
13.02.2019 18:00:00 13,9 3,9 8 4 O 1028,0 20 0,0
13.02.2019 17:00:00 16,2 4,6 9 5 O 1027,5 20 0,0
13.02.2019 16:00:00 16,9 5,2 8 4 ONO 1027,3 20 -
13.02.2019 15:00:00 17,2 4,2 5 3 OZO 1027,5 20 0,0
13.02.2019 14:00:00 - - - - - - - -
13.02.2019 13:00:00 14,4 2,0 4 2 N 1029,0 20 -
13.02.2019 12:00:00 13,7 2,3 4 2 ZZO 1029,3 20 0,0
13.02.2019 11:00:00 9,3 1,9 5 3 Z 1030,0 20 0,0
13.02.2019 10:00:00 5,9 0,4 8 4 Z 1030,6 20 -
13.02.2019 09:00:00 4,7 -0,7 13 7 Z 1030,6 20 0,0
13.02.2019 08:00:00 4,3 -0,1 11 6 Z 1030,4 20 0,0
13.02.2019 07:00:00 3,9 0,2 11 6 Z 1030,3 20 -
13.02.2019 06:00:00 3,9 0,8 9 5 Z 1030,3 19 0,0
13.02.2019 05:00:00 4,1 1,3 11 6 Z 1030,3 20 0,0
13.02.2019 04:00:00 4,1 1,8 9 5 Z 1030,6 18 -
13.02.2019 03:00:00 4,3 2,2 8 4 Z 1030,9 16 0,0
13.02.2019 02:00:00 4,9 2,4 8 4 Z 1031,0 16 0,0
13.02.2019 01:00:00 5,5 3,2 8 4 Z 1031,1 14 -
13.02.2019 00:00:00 5,7 4,0 5 3 Z 1031,2 14 0,0
12.02.2019 23:00:00 6,5 4,5 2 1 ZZO 1031,2 13 0,0
12.02.2019 22:00:00 7,1 4,9 4 2 WNW 1031,3 14 -
12.02.2019 21:00:00 7,8 4,9 2 1 NW 1031,0 14 0,0
12.02.2019 20:00:00 8,8 4,8 5 3 O 1030,9 19 0,0
12.02.2019 19:00:00 10,0 5,0 8 4 O 1030,2 18 -
12.02.2019 18:00:00 12,2 4,7 9 5 O 1029,7 20 0,0
12.02.2019 17:00:00 13,7 5,1 5 3 O 1029,6 20 0,0
12.02.2019 16:00:00 14,1 4,1 8 4 NO 1029,7 20 -
12.02.2019 15:00:00 13,8 2,4 5 3 O 1030,5 20 0,0
12.02.2019 14:00:00 12,1 2,0 5 3 O 1031,2 20 0,0
12.02.2019 13:00:00 10,4 2,5 5 3 ONO 1032,1 20 -
12.02.2019 12:00:00 8,8 2,1 5 3 O 1032,9 19 0,0
12.02.2019 11:00:00 6,7 1,4 5 3 Z 1033,3 20 0,0
12.02.2019 10:00:00 3,3 0,9 8 4 Z 1034,1 20 -
12.02.2019 09:00:00 1,9 0,7 9 5 Z 1034,6 16 0,0
12.02.2019 08:00:00 2,1 0,9 5 3 Z 1034,1 20 0,0
12.02.2019 07:00:00 2,3 1,3 11 6 Z 1033,8 20 -
12.02.2019 06:00:00 2,5 1,6 5 3 Z 1034,0 16 0,0
12.02.2019 05:00:00 3,1 1,9 5 3 Z 1033,8 17 0,0
12.02.2019 04:00:00 3,3 2,3 9 5 Z 1033,8 16 -
12.02.2019 03:00:00 3,8 2,5 5 3 ZZW 1033,9 16 0,0
12.02.2019 02:00:00 4,7 2,9 5 3 Z 1033,6 17 0,0
12.02.2019 01:00:00 5,1 3,3 8 4 OZO 1033,4 16 -
12.02.2019 00:00:00 5,4 3,7 9 5 ZO 1034,1 16 0,0
11.02.2019 23:00:00 5,7 3,9 8 4 ZO 1034,4 16 0,0
11.02.2019 22:00:00 6,7 4,4 8 4 OZO 1034,3 15 -
11.02.2019 21:00:00 6,9 4,4 5 3 OZO 1034,6 17 0,0
11.02.2019 20:00:00 7,8 5,1 9 5 O 1034,5 18 0,0
11.02.2019 19:00:00 8,6 4,6 15 8 NO 1033,5 20 -
11.02.2019 18:00:00 10,1 3,6 11 6 NO 1032,4 20 0,0
11.02.2019 17:00:00 12,1 2,8 8 4 ONO 1031,8 20 0,0
11.02.2019 16:00:00 12,3 2,4 8 4 O 1031,9 20 -
11.02.2019 15:00:00 11,9 2,1 5 3 O 1032,4 20 0,0
11.02.2019 14:00:00 12,2 2,3 5 3 ZZO 1032,7 20 0,0
11.02.2019 13:00:00 12,3 3,5 4 2 Z 1033,1 20 -

tt = temperatuur
td = dauwpunt
ff = windsnelheid
dd = windrichting
ppp = luchtdruk
vv = zicht
rr = neerslag

Weerstations in de omgeving